<?xml version="1.0" encoding="UTF-8" standalone="no" ?>
<gpx xmlns="http://www.topografix.com/GPX/1/1" xmlns:xsi="http://www.w3.org/2001/XMLSchema-instance" xsi:schemaLocation="http://www.topografix.com/GPX/1/1 http://www.topografix.com/GPX/1/1/gpx.xsd" version="1.1" creator="VisuGPX - https://www.visugpx.com">
  <metadata>
    <name>Tréminis Chichilianne MAJ</name>
  </metadata>
  <trk>
    <name><![CDATA[Treffort St Sebastien GDP]]></name>
    <trkseg>
      <trkpt lat="44.89894" lon="5.67381">
        <ele>489</ele>
        <time>2009-01-29T14:36:51Z</time>
      </trkpt>
      <trkpt lat="44.89864" lon="5.67335">
        <ele>498</ele>
        <time>2009-01-29T14:36:51Z</time>
      </trkpt>
      <trkpt lat="44.89841" lon="5.67359">
        <ele>496</ele>
        <time>2009-01-29T14:36:51Z</time>
      </trkpt>
      <trkpt lat="44.89811" lon="5.67361">
        <ele>498</ele>
        <time>2009-01-29T14:36:51Z</time>
      </trkpt>
      <trkpt lat="44.89759" lon="5.6737">
        <ele>498</ele>
        <time>2009-01-29T14:36:51Z</time>
      </trkpt>
      <trkpt lat="44.89718" lon="5.67406">
        <ele>492</ele>
        <time>2009-01-29T14:36:51Z</time>
      </trkpt>
      <trkpt lat="44.89688" lon="5.67417">
        <ele>490</ele>
        <time>2009-01-29T14:36:51Z</time>
      </trkpt>
      <trkpt lat="44.8967" lon="5.67406">
        <ele>490</ele>
        <time>2009-01-29T14:36:51Z</time>
      </trkpt>
      <trkpt lat="44.89664" lon="5.67387">
        <ele>493</ele>
        <time>2009-01-29T14:36:51Z</time>
      </trkpt>
      <trkpt lat="44.89624" lon="5.67365">
        <ele>497</ele>
        <time>2009-01-29T14:36:51Z</time>
      </trkpt>
      <trkpt lat="44.89444" lon="5.67361">
        <ele>517</ele>
        <time>2009-01-29T14:36:51Z</time>
      </trkpt>
      <trkpt lat="44.89434" lon="5.67351">
        <ele>520</ele>
        <time>2009-01-29T14:36:51Z</time>
      </trkpt>
      <trkpt lat="44.89443" lon="5.67329">
        <ele>523</ele>
        <time>2009-01-29T14:36:51Z</time>
      </trkpt>
      <trkpt lat="44.89467" lon="5.67292">
        <ele>529</ele>
        <time>2009-01-29T14:36:51Z</time>
      </trkpt>
      <trkpt lat="44.89488" lon="5.67253">
        <ele>535</ele>
        <time>2009-01-29T14:36:51Z</time>
      </trkpt>
      <trkpt lat="44.89436" lon="5.67268">
        <ele>535</ele>
        <time>2009-01-29T14:36:51Z</time>
      </trkpt>
      <trkpt lat="44.89315" lon="5.67309">
        <ele>532</ele>
        <time>2009-01-29T14:36:51Z</time>
      </trkpt>
      <trkpt lat="44.89214" lon="5.67306">
        <ele>531</ele>
        <time>2009-01-29T14:36:51Z</time>
      </trkpt>
      <trkpt lat="44.89153" lon="5.67321">
        <ele>529</ele>
        <time>2009-01-29T14:36:51Z</time>
      </trkpt>
      <trkpt lat="44.8906" lon="5.67338">
        <ele>524</ele>
        <time>2009-01-29T14:36:51Z</time>
      </trkpt>
      <trkpt lat="44.88937" lon="5.67337">
        <ele>520</ele>
        <time>2009-01-29T14:36:51Z</time>
      </trkpt>
      <trkpt lat="44.88762" lon="5.67393">
        <ele>521</ele>
        <time>2009-01-29T14:36:51Z</time>
      </trkpt>
      <trkpt lat="44.88643" lon="5.6743">
        <ele>522</ele>
        <time>2009-01-29T14:36:51Z</time>
      </trkpt>
      <trkpt lat="44.8856" lon="5.67428">
        <ele>528</ele>
        <time>2009-01-29T14:36:51Z</time>
      </trkpt>
      <trkpt lat="44.885" lon="5.67469">
        <ele>524</ele>
        <time>2009-01-29T14:36:51Z</time>
      </trkpt>
      <trkpt lat="44.88453" lon="5.67485">
        <ele>527</ele>
        <time>2009-01-29T14:36:51Z</time>
      </trkpt>
      <trkpt lat="44.88408" lon="5.67489">
        <ele>530</ele>
        <time>2009-01-29T14:36:51Z</time>
      </trkpt>
      <trkpt lat="44.88373" lon="5.67509">
        <ele>531</ele>
        <time>2009-01-29T14:36:51Z</time>
      </trkpt>
      <trkpt lat="44.88325" lon="5.67535">
        <ele>534</ele>
        <time>2009-01-29T14:36:51Z</time>
      </trkpt>
      <trkpt lat="44.88292" lon="5.67577">
        <ele>534</ele>
        <time>2009-01-29T14:36:51Z</time>
      </trkpt>
      <trkpt lat="44.88218" lon="5.67579">
        <ele>543</ele>
        <time>2009-01-29T14:36:51Z</time>
      </trkpt>
      <trkpt lat="44.88137" lon="5.6759">
        <ele>547</ele>
        <time>2009-01-29T14:36:51Z</time>
      </trkpt>
      <trkpt lat="44.88096" lon="5.67603">
        <ele>548</ele>
        <time>2009-01-29T14:36:51Z</time>
      </trkpt>
      <trkpt lat="44.88023" lon="5.67637">
        <ele>543</ele>
        <time>2009-01-29T14:36:51Z</time>
      </trkpt>
      <trkpt lat="44.87981" lon="5.67612">
        <ele>558</ele>
        <time>2009-01-29T14:36:51Z</time>
      </trkpt>
      <trkpt lat="44.87858" lon="5.6757">
        <ele>594</ele>
        <time>2009-01-29T14:36:51Z</time>
      </trkpt>
      <trkpt lat="44.87786" lon="5.67566">
        <ele>602</ele>
        <time>2009-01-29T14:36:51Z</time>
      </trkpt>
      <trkpt lat="44.87697" lon="5.67551">
        <ele>615</ele>
        <time>2009-01-29T14:36:51Z</time>
      </trkpt>
      <trkpt lat="44.87582" lon="5.67538">
        <ele>624</ele>
        <time>2009-01-29T14:36:51Z</time>
      </trkpt>
      <trkpt lat="44.87523" lon="5.67502">
        <ele>641</ele>
        <time>2009-01-29T14:36:51Z</time>
      </trkpt>
      <trkpt lat="44.87453" lon="5.67489">
        <ele>643</ele>
        <time>2009-01-29T14:36:51Z</time>
      </trkpt>
      <trkpt lat="44.87396" lon="5.67454">
        <ele>658</ele>
        <time>2009-01-29T14:36:51Z</time>
      </trkpt>
      <trkpt lat="44.87325" lon="5.67408">
        <ele>670</ele>
        <time>2009-01-29T14:36:51Z</time>
      </trkpt>
      <trkpt lat="44.87317" lon="5.67379">
        <ele>684</ele>
        <time>2009-01-29T14:36:51Z</time>
      </trkpt>
      <trkpt lat="44.87301" lon="5.67372">
        <ele>675</ele>
        <time>2009-01-29T14:36:51Z</time>
      </trkpt>
      <trkpt lat="44.87288" lon="5.67371">
        <ele>663</ele>
        <time>2009-01-29T14:36:51Z</time>
      </trkpt>
      <trkpt lat="44.87282" lon="5.67339">
        <ele>679</ele>
        <time>2009-01-29T14:36:51Z</time>
      </trkpt>
      <trkpt lat="44.87287" lon="5.67267">
        <ele>701</ele>
        <time>2009-01-29T14:36:51Z</time>
      </trkpt>
      <trkpt lat="44.87272" lon="5.67234">
        <ele>690</ele>
        <time>2009-01-29T14:36:51Z</time>
      </trkpt>
      <trkpt lat="44.87253" lon="5.67179">
        <ele>690</ele>
        <time>2009-01-29T14:36:51Z</time>
      </trkpt>
      <trkpt lat="44.87262" lon="5.67116">
        <ele>711</ele>
        <time>2009-01-29T14:36:51Z</time>
      </trkpt>
      <trkpt lat="44.87326" lon="5.67098">
        <ele>722</ele>
        <time>2009-01-29T14:36:51Z</time>
      </trkpt>
      <trkpt lat="44.8738" lon="5.67098">
        <ele>723</ele>
        <time>2009-01-29T14:36:51Z</time>
      </trkpt>
      <trkpt lat="44.87427" lon="5.67095">
        <ele>725</ele>
        <time>2009-01-29T14:36:51Z</time>
      </trkpt>
      <trkpt lat="44.87433" lon="5.67051">
        <ele>728</ele>
        <time>2009-01-29T14:36:51Z</time>
      </trkpt>
      <trkpt lat="44.87388" lon="5.67035">
        <ele>726</ele>
        <time>2009-01-29T14:36:51Z</time>
      </trkpt>
      <trkpt lat="44.87331" lon="5.67054">
        <ele>723</ele>
        <time>2009-01-29T14:36:51Z</time>
      </trkpt>
      <trkpt lat="44.87303" lon="5.6704">
        <ele>719</ele>
        <time>2009-01-29T14:36:51Z</time>
      </trkpt>
      <trkpt lat="44.8724" lon="5.67036">
        <ele>703</ele>
        <time>2009-01-29T14:36:51Z</time>
      </trkpt>
      <trkpt lat="44.87206" lon="5.67047">
        <ele>684</ele>
        <time>2009-01-29T14:36:51Z</time>
      </trkpt>
      <trkpt lat="44.87218" lon="5.66997">
        <ele>689</ele>
        <time>2009-01-29T14:36:51Z</time>
      </trkpt>
      <trkpt lat="44.87133" lon="5.66989">
        <ele>656</ele>
        <time>2009-01-29T14:36:51Z</time>
      </trkpt>
      <trkpt lat="44.87077" lon="5.66979">
        <ele>637</ele>
        <time>2009-01-29T14:36:51Z</time>
      </trkpt>
      <trkpt lat="44.87029" lon="5.66928">
        <ele>621</ele>
        <time>2009-01-29T14:36:51Z</time>
      </trkpt>
      <trkpt lat="44.86989" lon="5.66907">
        <ele>607</ele>
        <time>2009-01-29T14:36:51Z</time>
      </trkpt>
      <trkpt lat="44.86975" lon="5.66862">
        <ele>596</ele>
        <time>2009-01-29T14:36:51Z</time>
      </trkpt>
      <trkpt lat="44.86946" lon="5.66844">
        <ele>582</ele>
        <time>2009-01-29T14:36:51Z</time>
      </trkpt>
      <trkpt lat="44.8694" lon="5.66895">
        <ele>589</ele>
        <time>2009-01-29T14:36:51Z</time>
      </trkpt>
      <trkpt lat="44.86937" lon="5.66983">
        <ele>581</ele>
        <time>2009-01-29T14:36:51Z</time>
      </trkpt>
      <trkpt lat="44.86931" lon="5.67052">
        <ele>538</ele>
        <time>2009-01-29T14:36:51Z</time>
      </trkpt>
      <trkpt lat="44.86915" lon="5.67045">
        <ele>540</ele>
        <time>2009-01-29T14:36:51Z</time>
      </trkpt>
      <trkpt lat="44.86916" lon="5.67017">
        <ele>563</ele>
        <time>2009-01-29T14:36:51Z</time>
      </trkpt>
      <trkpt lat="44.86915" lon="5.66963">
        <ele>578</ele>
        <time>2009-01-29T14:36:51Z</time>
      </trkpt>
      <trkpt lat="44.86874" lon="5.66846">
        <ele>564</ele>
        <time>2009-01-29T14:36:51Z</time>
      </trkpt>
      <trkpt lat="44.8686" lon="5.66852">
        <ele>559</ele>
        <time>2009-01-29T14:36:51Z</time>
      </trkpt>
      <trkpt lat="44.86856" lon="5.66928">
        <ele>557</ele>
        <time>2009-01-29T14:36:51Z</time>
      </trkpt>
      <trkpt lat="44.86839" lon="5.67028">
        <ele>525</ele>
        <time>2009-01-29T14:36:51Z</time>
      </trkpt>
      <trkpt lat="44.86827" lon="5.67062">
        <ele>503</ele>
        <time>2009-01-29T14:36:51Z</time>
      </trkpt>
      <trkpt lat="44.86793" lon="5.6713">
        <ele>528</ele>
        <time>2009-01-29T14:36:51Z</time>
      </trkpt>
      <trkpt lat="44.86726" lon="5.67281">
        <ele>566</ele>
        <time>2009-01-29T14:36:51Z</time>
      </trkpt>
      <trkpt lat="44.86718" lon="5.6753">
        <ele>564</ele>
        <time>2009-01-29T14:36:51Z</time>
      </trkpt>
      <trkpt lat="44.8673" lon="5.67594">
        <ele>569</ele>
        <time>2009-01-29T14:36:51Z</time>
      </trkpt>
      <trkpt lat="44.86728" lon="5.67651">
        <ele>577</ele>
        <time>2009-01-29T14:36:51Z</time>
      </trkpt>
      <trkpt lat="44.86717" lon="5.67641">
        <ele>575</ele>
        <time>2009-01-29T14:36:51Z</time>
      </trkpt>
      <trkpt lat="44.86626" lon="5.67379">
        <ele>581</ele>
        <time>2009-01-29T14:36:51Z</time>
      </trkpt>
      <trkpt lat="44.86613" lon="5.67369">
        <ele>584</ele>
        <time>2009-01-29T14:36:51Z</time>
      </trkpt>
      <trkpt lat="44.86601" lon="5.6739">
        <ele>588</ele>
        <time>2009-01-29T14:36:51Z</time>
      </trkpt>
      <trkpt lat="44.86609" lon="5.67483">
        <ele>589</ele>
        <time>2009-01-29T14:36:51Z</time>
      </trkpt>
      <trkpt lat="44.86595" lon="5.67507">
        <ele>592</ele>
        <time>2009-01-29T14:36:51Z</time>
      </trkpt>
      <trkpt lat="44.86543" lon="5.67526">
        <ele>603</ele>
        <time>2009-01-29T14:36:51Z</time>
      </trkpt>
      <trkpt lat="44.86511" lon="5.67553">
        <ele>607</ele>
        <time>2009-01-29T14:36:51Z</time>
      </trkpt>
      <trkpt lat="44.86494" lon="5.67568">
        <ele>610</ele>
        <time>2009-01-29T14:36:51Z</time>
      </trkpt>
      <trkpt lat="44.86467" lon="5.67566">
        <ele>614</ele>
        <time>2009-01-29T14:36:51Z</time>
      </trkpt>
      <trkpt lat="44.86456" lon="5.67572">
        <ele>616</ele>
        <time>2009-01-29T14:36:51Z</time>
      </trkpt>
      <trkpt lat="44.86445" lon="5.67558">
        <ele>618</ele>
        <time>2009-01-29T14:36:51Z</time>
      </trkpt>
      <trkpt lat="44.86428" lon="5.67592">
        <ele>621</ele>
        <time>2009-01-29T14:36:51Z</time>
      </trkpt>
      <trkpt lat="44.86351" lon="5.67603">
        <ele>636</ele>
        <time>2009-01-29T14:36:51Z</time>
      </trkpt>
      <trkpt lat="44.86284" lon="5.67659">
        <ele>646</ele>
        <time>2009-01-29T14:36:51Z</time>
      </trkpt>
      <trkpt lat="44.86264" lon="5.67671">
        <ele>650</ele>
        <time>2009-01-29T14:36:51Z</time>
      </trkpt>
      <trkpt lat="44.86246" lon="5.67667">
        <ele>653</ele>
        <time>2009-01-29T14:36:51Z</time>
      </trkpt>
      <trkpt lat="44.86215" lon="5.67712">
        <ele>659</ele>
        <time>2009-01-29T14:36:51Z</time>
      </trkpt>
      <trkpt lat="44.86188" lon="5.6772">
        <ele>664</ele>
        <time>2009-01-29T14:36:51Z</time>
      </trkpt>
      <trkpt lat="44.86166" lon="5.677">
        <ele>668</ele>
        <time>2009-01-29T14:36:51Z</time>
      </trkpt>
      <trkpt lat="44.86156" lon="5.67668">
        <ele>670</ele>
        <time>2009-01-29T14:36:51Z</time>
      </trkpt>
      <trkpt lat="44.86132" lon="5.67641">
        <ele>673</ele>
        <time>2009-01-29T14:36:51Z</time>
      </trkpt>
      <trkpt lat="44.86108" lon="5.67627">
        <ele>677</ele>
        <time>2009-01-29T14:36:51Z</time>
      </trkpt>
      <trkpt lat="44.86088" lon="5.67622">
        <ele>680</ele>
        <time>2009-01-29T14:36:51Z</time>
      </trkpt>
      <trkpt lat="44.86054" lon="5.67627">
        <ele>686</ele>
        <time>2009-01-29T14:36:51Z</time>
      </trkpt>
      <trkpt lat="44.86031" lon="5.67632">
        <ele>690</ele>
        <time>2009-01-29T14:36:51Z</time>
      </trkpt>
      <trkpt lat="44.85986" lon="5.67632">
        <ele>697</ele>
        <time>2009-01-29T14:36:51Z</time>
      </trkpt>
      <trkpt lat="44.85964" lon="5.67624">
        <ele>699</ele>
        <time>2009-01-29T14:36:51Z</time>
      </trkpt>
      <trkpt lat="44.85909" lon="5.67646">
        <ele>705</ele>
        <time>2009-01-29T14:36:51Z</time>
      </trkpt>
      <trkpt lat="44.85926" lon="5.67685">
        <ele>704</ele>
        <time>2009-01-29T14:36:51Z</time>
      </trkpt>
      <trkpt lat="44.85878" lon="5.67702">
        <ele>709</ele>
        <time>2009-01-29T14:36:51Z</time>
      </trkpt>
      <trkpt lat="44.85851" lon="5.67709">
        <ele>713</ele>
        <time>2009-01-29T14:36:51Z</time>
      </trkpt>
      <trkpt lat="44.85828" lon="5.6773">
        <ele>717</ele>
        <time>2009-01-29T14:36:51Z</time>
      </trkpt>
      <trkpt lat="44.85811" lon="5.67758">
        <ele>724</ele>
        <time>2009-01-29T14:36:51Z</time>
      </trkpt>
      <trkpt lat="44.85801" lon="5.67937">
        <ele>757</ele>
        <time>2009-01-29T14:36:51Z</time>
      </trkpt>
      <trkpt lat="44.85823" lon="5.6804">
        <ele>741</ele>
        <time>2009-01-29T14:36:51Z</time>
      </trkpt>
      <trkpt lat="44.85821" lon="5.68091">
        <ele>728</ele>
        <time>2009-01-29T14:36:51Z</time>
      </trkpt>
      <trkpt lat="44.85784" lon="5.68133">
        <ele>729</ele>
        <time>2009-01-29T14:36:51Z</time>
      </trkpt>
      <trkpt lat="44.85751" lon="5.68197">
        <ele>729</ele>
        <time>2009-01-29T14:36:51Z</time>
      </trkpt>
      <trkpt lat="44.85728" lon="5.68278">
        <ele>730</ele>
        <time>2009-01-29T14:36:51Z</time>
      </trkpt>
      <trkpt lat="44.85714" lon="5.68423">
        <ele>710</ele>
        <time>2009-01-29T14:36:51Z</time>
      </trkpt>
      <trkpt lat="44.8568" lon="5.68455">
        <ele>712</ele>
        <time>2009-01-29T14:36:51Z</time>
      </trkpt>
      <trkpt lat="44.85625" lon="5.68481">
        <ele>728</ele>
        <time>2009-01-29T14:36:51Z</time>
      </trkpt>
      <trkpt lat="44.8553" lon="5.6856">
        <ele>757</ele>
        <time>2009-01-29T14:36:51Z</time>
      </trkpt>
      <trkpt lat="44.85428" lon="5.68652">
        <ele>771</ele>
        <time>2009-01-29T14:36:51Z</time>
      </trkpt>
      <trkpt lat="44.85403" lon="5.68689">
        <ele>767</ele>
        <time>2009-01-29T14:36:51Z</time>
      </trkpt>
      <trkpt lat="44.85356" lon="5.68737">
        <ele>766</ele>
        <time>2009-01-29T14:36:51Z</time>
      </trkpt>
      <trkpt lat="44.85333" lon="5.68757">
        <ele>767</ele>
        <time>2009-01-29T14:36:51Z</time>
      </trkpt>
      <trkpt lat="44.85306" lon="5.68816">
        <ele>763</ele>
        <time>2009-01-29T14:36:51Z</time>
      </trkpt>
      <trkpt lat="44.85288" lon="5.68846">
        <ele>760</ele>
        <time>2009-01-29T14:36:51Z</time>
      </trkpt>
      <trkpt lat="44.85241" lon="5.68894">
        <ele>758</ele>
        <time>2009-01-29T14:36:51Z</time>
      </trkpt>
      <trkpt lat="44.85181" lon="5.68948">
        <ele>763</ele>
        <time>2009-01-29T14:36:51Z</time>
      </trkpt>
      <trkpt lat="44.8513" lon="5.68979">
        <ele>779</ele>
        <time>2009-01-29T14:36:51Z</time>
      </trkpt>
      <trkpt lat="44.85098" lon="5.69015">
        <ele>785</ele>
        <time>2009-01-29T14:36:51Z</time>
      </trkpt>
      <trkpt lat="44.85054" lon="5.69057">
        <ele>788</ele>
        <time>2009-01-29T14:36:51Z</time>
      </trkpt>
      <trkpt lat="44.85011" lon="5.69064">
        <ele>794</ele>
        <time>2009-01-29T14:36:51Z</time>
      </trkpt>
      <trkpt lat="44.84993" lon="5.69139">
        <ele>775</ele>
        <time>2009-01-29T14:36:51Z</time>
      </trkpt>
      <trkpt lat="44.84971" lon="5.69176">
        <ele>766</ele>
        <time>2009-01-29T14:36:51Z</time>
      </trkpt>
      <trkpt lat="44.84961" lon="5.69219">
        <ele>759</ele>
        <time>2009-01-29T14:36:51Z</time>
      </trkpt>
      <trkpt lat="44.84918" lon="5.69315">
        <ele>753</ele>
        <time>2009-01-29T14:36:51Z</time>
      </trkpt>
      <trkpt lat="44.84921" lon="5.69347">
        <ele>751</ele>
        <time>2009-01-29T14:36:51Z</time>
      </trkpt>
      <trkpt lat="44.8494" lon="5.69392">
        <ele>747</ele>
        <time>2009-01-29T14:36:51Z</time>
      </trkpt>
      <trkpt lat="44.84907" lon="5.6946">
        <ele>752</ele>
        <time>2009-01-29T14:36:51Z</time>
      </trkpt>
      <trkpt lat="44.8488" lon="5.69534">
        <ele>756</ele>
        <time>2009-01-29T14:36:51Z</time>
      </trkpt>
      <trkpt lat="44.84845" lon="5.69567">
        <ele>761</ele>
        <time>2009-01-29T14:36:51Z</time>
      </trkpt>
      <trkpt lat="44.84788" lon="5.69645">
        <ele>769</ele>
        <time>2009-01-29T14:36:51Z</time>
      </trkpt>
      <trkpt lat="44.84778" lon="5.69695">
        <ele>770</ele>
        <time>2009-01-29T14:36:51Z</time>
      </trkpt>
      <trkpt lat="44.84761" lon="5.6972">
        <ele>772</ele>
        <time>2009-01-29T14:36:51Z</time>
      </trkpt>
      <trkpt lat="44.84777" lon="5.69787">
        <ele>766</ele>
        <time>2009-01-29T14:36:51Z</time>
      </trkpt>
      <trkpt lat="44.84775" lon="5.69996">
        <ele>759</ele>
        <time>2009-01-29T14:36:51Z</time>
      </trkpt>
      <trkpt lat="44.84767" lon="5.70135">
        <ele>762</ele>
        <time>2009-01-29T14:36:51Z</time>
      </trkpt>
      <trkpt lat="44.84793" lon="5.70316">
        <ele>769</ele>
        <time>2009-01-29T14:36:51Z</time>
      </trkpt>
      <trkpt lat="44.84812" lon="5.70485">
        <ele>774</ele>
        <time>2009-01-29T14:36:51Z</time>
      </trkpt>
      <trkpt lat="44.84853" lon="5.70545">
        <ele>776</ele>
        <time>2009-01-29T14:36:51Z</time>
      </trkpt>
      <trkpt lat="44.84895" lon="5.70582">
        <ele>779</ele>
        <time>2009-01-29T14:36:51Z</time>
      </trkpt>
      <trkpt lat="44.84912" lon="5.70624">
        <ele>781</ele>
        <time>2009-01-29T14:36:51Z</time>
      </trkpt>
      <trkpt lat="44.84925" lon="5.70707">
        <ele>788</ele>
        <time>2009-01-29T14:36:51Z</time>
      </trkpt>
      <trkpt lat="44.84963" lon="5.7071">
        <ele>790</ele>
        <time>2009-01-29T14:36:51Z</time>
      </trkpt>
      <trkpt lat="44.84994" lon="5.70724">
        <ele>792</ele>
        <time>2009-01-29T14:36:51Z</time>
      </trkpt>
      <trkpt lat="44.85015" lon="5.70773">
        <ele>797</ele>
        <time>2009-01-29T14:36:51Z</time>
      </trkpt>
      <trkpt lat="44.85057" lon="5.7074">
        <ele>799</ele>
        <time>2009-01-29T14:36:51Z</time>
      </trkpt>
      <trkpt lat="44.8508" lon="5.7071">
        <ele>799</ele>
        <time>2009-01-29T14:36:51Z</time>
      </trkpt>
      <trkpt lat="44.85133" lon="5.70663">
        <ele>799</ele>
        <time>2009-01-29T14:36:51Z</time>
      </trkpt>
      <trkpt lat="44.8527" lon="5.70665">
        <ele>796</ele>
        <time>2009-01-29T14:36:51Z</time>
      </trkpt>
      <trkpt lat="44.85374" lon="5.70671">
        <ele>794</ele>
        <time>2009-01-29T14:36:51Z</time>
      </trkpt>
      <trkpt lat="44.85416" lon="5.7068">
        <ele>795</ele>
        <time>2009-01-29T14:36:51Z</time>
      </trkpt>
      <trkpt lat="44.85455" lon="5.7066">
        <ele>794</ele>
        <time>2009-01-29T14:36:51Z</time>
      </trkpt>
      <trkpt lat="44.85543" lon="5.70732">
        <ele>794</ele>
        <time>2009-01-29T14:36:51Z</time>
      </trkpt>
      <trkpt lat="44.85615" lon="5.70743">
        <ele>793</ele>
        <time>2009-01-29T14:36:51Z</time>
      </trkpt>
      <trkpt lat="44.85679" lon="5.70762">
        <ele>795</ele>
        <time>2009-01-29T14:36:51Z</time>
      </trkpt>
      <trkpt lat="44.85785" lon="5.70772">
        <ele>797</ele>
        <time>2009-01-29T14:36:51Z</time>
      </trkpt>
      <trkpt lat="44.85813" lon="5.70808">
        <ele>807</ele>
        <time>2009-01-29T14:36:51Z</time>
      </trkpt>
      <trkpt lat="44.85876" lon="5.70822">
        <ele>819</ele>
        <time>2009-01-29T14:36:51Z</time>
      </trkpt>
      <trkpt lat="44.85985" lon="5.70847">
        <ele>833</ele>
        <time>2009-01-29T14:36:51Z</time>
      </trkpt>
      <trkpt lat="44.86064" lon="5.70858">
        <ele>820</ele>
        <time>2009-01-29T14:36:51Z</time>
      </trkpt>
      <trkpt lat="44.86112" lon="5.70877">
        <ele>803</ele>
        <time>2009-01-29T14:36:51Z</time>
      </trkpt>
      <trkpt lat="44.86119" lon="5.70893">
        <ele>796</ele>
        <time>2009-01-29T14:36:51Z</time>
      </trkpt>
      <trkpt lat="44.86076" lon="5.70951">
        <ele>794</ele>
        <time>2009-01-29T14:36:51Z</time>
      </trkpt>
      <trkpt lat="44.86043" lon="5.71009">
        <ele>812</ele>
        <time>2009-01-29T14:36:51Z</time>
      </trkpt>
      <trkpt lat="44.86049" lon="5.71053">
        <ele>822</ele>
        <time>2009-01-29T14:36:51Z</time>
      </trkpt>
      <trkpt lat="44.8609" lon="5.71103">
        <ele>821</ele>
        <time>2009-01-29T14:36:51Z</time>
      </trkpt>
      <trkpt lat="44.86107" lon="5.7112">
        <ele>818</ele>
        <time>2009-01-29T14:36:51Z</time>
      </trkpt>
      <trkpt lat="44.86161" lon="5.71275">
        <ele>799</ele>
        <time>2009-01-29T14:36:51Z</time>
      </trkpt>
      <trkpt lat="44.86111" lon="5.71453">
        <ele>825</ele>
        <time>2009-01-29T14:36:51Z</time>
      </trkpt>
      <trkpt lat="44.86176" lon="5.71583">
        <ele>802</ele>
        <time>2009-01-29T14:36:51Z</time>
      </trkpt>
      <trkpt lat="44.86182" lon="5.71606">
        <ele>794</ele>
        <time>2009-01-29T14:36:51Z</time>
      </trkpt>
      <trkpt lat="44.86175" lon="5.71637">
        <ele>791</ele>
        <time>2009-01-29T14:36:51Z</time>
      </trkpt>
      <trkpt lat="44.86153" lon="5.71677">
        <ele>791</ele>
        <time>2009-01-29T14:36:51Z</time>
      </trkpt>
      <trkpt lat="44.86128" lon="5.71701">
        <ele>795</ele>
        <time>2009-01-29T14:36:51Z</time>
      </trkpt>
      <trkpt lat="44.86085" lon="5.71714">
        <ele>802</ele>
        <time>2009-01-29T14:36:51Z</time>
      </trkpt>
      <trkpt lat="44.86042" lon="5.71718">
        <ele>804</ele>
        <time>2009-01-29T14:36:51Z</time>
      </trkpt>
      <trkpt lat="44.85965" lon="5.71719">
        <ele>796</ele>
        <time>2009-01-29T14:36:51Z</time>
      </trkpt>
      <trkpt lat="44.85913" lon="5.71726">
        <ele>799</ele>
        <time>2009-01-29T14:36:51Z</time>
      </trkpt>
      <trkpt lat="44.85876" lon="5.71771">
        <ele>814</ele>
        <time>2009-01-29T14:36:51Z</time>
      </trkpt>
      <trkpt lat="44.85897" lon="5.71829">
        <ele>825</ele>
        <time>2009-01-29T14:36:51Z</time>
      </trkpt>
      <trkpt lat="44.85927" lon="5.71875">
        <ele>820</ele>
        <time>2009-01-29T14:36:51Z</time>
      </trkpt>
      <trkpt lat="44.85954" lon="5.71943">
        <ele>819</ele>
        <time>2009-01-29T14:36:51Z</time>
      </trkpt>
      <trkpt lat="44.85981" lon="5.72005">
        <ele>812</ele>
        <time>2009-01-29T14:36:51Z</time>
      </trkpt>
      <trkpt lat="44.85948" lon="5.72127">
        <ele>819</ele>
        <time>2009-01-29T14:36:51Z</time>
      </trkpt>
      <trkpt lat="44.8592" lon="5.72172">
        <ele>821</ele>
        <time>2009-01-29T14:36:51Z</time>
      </trkpt>
      <trkpt lat="44.85881" lon="5.72252">
        <ele>810</ele>
        <time>2009-01-29T14:36:51Z</time>
      </trkpt>
      <trkpt lat="44.85839" lon="5.72303">
        <ele>804</ele>
        <time>2009-01-29T14:36:51Z</time>
      </trkpt>
      <trkpt lat="44.85786" lon="5.72345">
        <ele>801</ele>
        <time>2009-01-29T14:36:51Z</time>
      </trkpt>
      <trkpt lat="44.8574" lon="5.72373">
        <ele>801</ele>
        <time>2009-01-29T14:36:51Z</time>
      </trkpt>
      <trkpt lat="44.85607" lon="5.72457">
        <ele>793</ele>
        <time>2009-01-29T14:36:51Z</time>
      </trkpt>
      <trkpt lat="44.85577" lon="5.7243">
        <ele>810</ele>
        <time>2009-01-29T14:36:51Z</time>
      </trkpt>
      <trkpt lat="44.85548" lon="5.72488">
        <ele>798</ele>
        <time>2009-01-29T14:36:51Z</time>
      </trkpt>
      <trkpt lat="44.85486" lon="5.72526">
        <ele>811</ele>
        <time>2009-01-29T14:36:51Z</time>
      </trkpt>
      <trkpt lat="44.85449" lon="5.72568">
        <ele>813</ele>
        <time>2009-01-29T14:36:51Z</time>
      </trkpt>
      <trkpt lat="44.85408" lon="5.72641">
        <ele>809</ele>
        <time>2009-01-29T14:36:51Z</time>
      </trkpt>
      <trkpt lat="44.85374" lon="5.72652">
        <ele>821</ele>
        <time>2009-01-29T14:36:51Z</time>
      </trkpt>
      <trkpt lat="44.85348" lon="5.72688">
        <ele>824</ele>
        <time>2009-01-29T14:36:51Z</time>
      </trkpt>
      <trkpt lat="44.85308" lon="5.72752">
        <ele>825</ele>
        <time>2009-01-29T14:36:51Z</time>
      </trkpt>
      <trkpt lat="44.85258" lon="5.72822">
        <ele>831</ele>
        <time>2009-01-29T14:36:51Z</time>
      </trkpt>
      <trkpt lat="44.85138" lon="5.73005">
        <ele>807</ele>
        <time>2009-01-29T14:36:51Z</time>
      </trkpt>
      <trkpt lat="44.85066" lon="5.73073">
        <ele>813</ele>
        <time>2009-01-29T14:36:51Z</time>
      </trkpt>
      <trkpt lat="44.85039" lon="5.7316">
        <ele>800</ele>
        <time>2009-01-29T14:36:51Z</time>
      </trkpt>
      <trkpt lat="44.84996" lon="5.7329">
        <ele>787</ele>
        <time>2009-01-29T14:36:51Z</time>
      </trkpt>
      <trkpt lat="44.84957" lon="5.73342">
        <ele>775</ele>
        <time>2009-01-29T14:36:51Z</time>
      </trkpt>
      <trkpt lat="44.84894" lon="5.73404">
        <ele>764</ele>
        <time>2009-01-29T14:36:51Z</time>
      </trkpt>
      <trkpt lat="44.84877" lon="5.73428">
        <ele>762</ele>
        <time>2009-01-29T14:36:51Z</time>
      </trkpt>
      <trkpt lat="44.84914" lon="5.73469">
        <ele>750</ele>
        <time>2009-01-29T14:36:51Z</time>
      </trkpt>
      <trkpt lat="44.84927" lon="5.73511">
        <ele>745</ele>
        <time>2009-01-29T14:36:51Z</time>
      </trkpt>
      <trkpt lat="44.84946" lon="5.73543">
        <ele>738</ele>
        <time>2009-01-29T14:36:51Z</time>
      </trkpt>
      <trkpt lat="44.84975" lon="5.73631">
        <ele>729</ele>
        <time>2009-01-29T14:36:51Z</time>
      </trkpt>
      <trkpt lat="44.85074" lon="5.73763">
        <ele>740</ele>
        <time>2009-01-29T14:36:51Z</time>
      </trkpt>
      <trkpt lat="44.85146" lon="5.73828">
        <ele>743</ele>
        <time>2009-01-29T14:36:51Z</time>
      </trkpt>
      <trkpt lat="44.85179" lon="5.73861">
        <ele>743</ele>
        <time>2009-01-29T14:36:51Z</time>
      </trkpt>
      <trkpt lat="44.85232" lon="5.73902">
        <ele>738</ele>
        <time>2009-01-29T14:36:51Z</time>
      </trkpt>
      <trkpt lat="44.85245" lon="5.73932">
        <ele>739</ele>
        <time>2009-01-29T14:36:51Z</time>
      </trkpt>
      <trkpt lat="44.85222" lon="5.73943">
        <ele>739</ele>
        <time>2009-01-29T14:36:51Z</time>
      </trkpt>
      <trkpt lat="44.85175" lon="5.73981">
        <ele>740</ele>
        <time>2009-01-29T14:36:51Z</time>
      </trkpt>
      <trkpt lat="44.85131" lon="5.74036">
        <ele>741</ele>
        <time>2009-01-29T14:36:51Z</time>
      </trkpt>
      <trkpt lat="44.85076" lon="5.7408">
        <ele>743</ele>
        <time>2009-01-29T14:36:51Z</time>
      </trkpt>
      <trkpt lat="44.85052" lon="5.74119">
        <ele>745</ele>
        <time>2009-01-29T14:36:51Z</time>
      </trkpt>
      <trkpt lat="44.85015" lon="5.74139">
        <ele>746</ele>
        <time>2009-01-29T14:36:51Z</time>
      </trkpt>
      <trkpt lat="44.84946" lon="5.74186">
        <ele>748</ele>
        <time>2009-01-29T14:36:51Z</time>
      </trkpt>
      <trkpt lat="44.84898" lon="5.74233">
        <ele>751</ele>
        <time>2009-01-29T14:36:51Z</time>
      </trkpt>
      <trkpt lat="44.84845" lon="5.74268">
        <ele>753</ele>
        <time>2009-01-29T14:36:51Z</time>
      </trkpt>
      <trkpt lat="44.84796" lon="5.74303">
        <ele>755</ele>
        <time>2009-01-29T14:36:51Z</time>
      </trkpt>
      <trkpt lat="44.84813" lon="5.74339">
        <ele>757</ele>
        <time>2009-01-29T14:36:51Z</time>
      </trkpt>
      <trkpt lat="44.84796" lon="5.74376">
        <ele>759</ele>
        <time>2009-01-29T14:36:51Z</time>
      </trkpt>
      <trkpt lat="44.84751" lon="5.74392">
        <ele>758</ele>
        <time>2009-01-29T14:36:51Z</time>
      </trkpt>
      <trkpt lat="44.84676" lon="5.74489">
        <ele>758</ele>
        <time>2009-01-29T14:36:51Z</time>
      </trkpt>
      <trkpt lat="44.84629" lon="5.74631">
        <ele>763</ele>
        <time>2009-01-29T14:36:51Z</time>
      </trkpt>
      <trkpt lat="44.84597" lon="5.74715">
        <ele>770</ele>
        <time>2009-01-29T14:36:51Z</time>
      </trkpt>
      <trkpt lat="44.84555" lon="5.74823">
        <ele>775</ele>
        <time>2009-01-29T14:36:51Z</time>
      </trkpt>
      <trkpt lat="44.84531" lon="5.74897">
        <ele>775</ele>
        <time>2009-01-29T14:36:51Z</time>
      </trkpt>
      <trkpt lat="44.84536" lon="5.75018">
        <ele>776</ele>
        <time>2009-01-29T14:36:51Z</time>
      </trkpt>
      <trkpt lat="44.84539" lon="5.75202">
        <ele>775</ele>
        <time>2009-01-29T14:36:51Z</time>
      </trkpt>
      <trkpt lat="44.84579" lon="5.75223">
        <ele>782</ele>
        <time>2009-01-29T14:36:51Z</time>
      </trkpt>
      <trkpt lat="44.84631" lon="5.75423">
        <ele>781</ele>
        <time>2009-01-29T14:36:51Z</time>
      </trkpt>
      <trkpt lat="44.84662" lon="5.75462">
        <ele>785</ele>
        <time>2009-01-29T14:36:51Z</time>
      </trkpt>
      <trkpt lat="44.84571" lon="5.75488">
        <ele>780</ele>
        <time>2009-01-29T14:36:51Z</time>
      </trkpt>
      <trkpt lat="44.84632" lon="5.75688">
        <ele>784</ele>
        <time>2009-01-29T14:36:51Z</time>
      </trkpt>
      <trkpt lat="44.84657" lon="5.75772">
        <ele>791</ele>
        <time>2009-01-29T14:36:51Z</time>
      </trkpt>
      <trkpt lat="44.84714" lon="5.76111">
        <ele>795</ele>
        <time>2009-01-29T14:36:51Z</time>
      </trkpt>
      <trkpt lat="44.84679" lon="5.76197">
        <ele>796</ele>
        <time>2009-01-29T14:36:51Z</time>
      </trkpt>
      <trkpt lat="44.84629" lon="5.76226">
        <ele>798</ele>
        <time>2009-01-29T14:36:51Z</time>
      </trkpt>
      <trkpt lat="44.84528" lon="5.76296">
        <ele>809</ele>
        <time>2009-01-29T14:36:51Z</time>
      </trkpt>
      <trkpt lat="44.84471" lon="5.76393">
        <ele>820</ele>
        <time>2009-01-29T14:36:51Z</time>
      </trkpt>
      <trkpt lat="44.84493" lon="5.76699">
        <ele>838</ele>
        <time>2009-01-29T14:36:51Z</time>
      </trkpt>
      <trkpt lat="44.84548" lon="5.77088">
        <ele>846</ele>
        <time>2009-01-29T14:36:51Z</time>
      </trkpt>
      <trkpt lat="44.84553" lon="5.77215">
        <ele>850</ele>
        <time>2009-01-29T14:36:51Z</time>
      </trkpt>
      <trkpt lat="44.84587" lon="5.7728">
        <ele>849</ele>
        <time>2009-01-29T14:36:51Z</time>
      </trkpt>
      <trkpt lat="44.84589" lon="5.77356">
        <ele>854</ele>
        <time>2009-01-29T14:36:51Z</time>
      </trkpt>
      <trkpt lat="44.84655" lon="5.7743">
        <ele>853</ele>
        <time>2009-01-29T14:36:51Z</time>
      </trkpt>
      <trkpt lat="44.84739" lon="5.77454">
        <ele>846</ele>
        <time>2009-01-29T14:36:51Z</time>
      </trkpt>
      <trkpt lat="44.84837" lon="5.77492">
        <ele>844</ele>
        <time>2009-01-29T14:36:51Z</time>
      </trkpt>
      <trkpt lat="44.84904" lon="5.77654">
        <ele>865</ele>
        <time>2009-01-29T14:36:51Z</time>
      </trkpt>
      <trkpt lat="44.84915" lon="5.77724">
        <ele>880</ele>
        <time>2009-01-29T14:36:51Z</time>
      </trkpt>
      <trkpt lat="44.84952" lon="5.7772">
        <ele>881</ele>
        <time>2009-01-29T14:36:51Z</time>
      </trkpt>
      <trkpt lat="44.85039" lon="5.77662">
        <ele>872</ele>
        <time>2009-01-29T14:36:51Z</time>
      </trkpt>
      <trkpt lat="44.85328" lon="5.77629">
        <ele>830</ele>
        <time>2009-01-29T14:36:51Z</time>
      </trkpt>
      <trkpt lat="44.85372" lon="5.7767">
        <ele>827</ele>
        <time>2009-01-29T14:36:51Z</time>
      </trkpt>
      <trkpt lat="44.853" lon="5.77938">
        <ele>837</ele>
        <time>2009-01-29T14:36:51Z</time>
      </trkpt>
      <trkpt lat="44.85304" lon="5.78103">
        <ele>838</ele>
        <time>2009-01-29T14:36:51Z</time>
      </trkpt>
      <trkpt lat="44.85252" lon="5.78182">
        <ele>845</ele>
        <time>2009-01-29T14:36:51Z</time>
      </trkpt>
      <trkpt lat="44.85187" lon="5.78241">
        <ele>856</ele>
        <time>2009-01-29T14:36:51Z</time>
      </trkpt>
      <trkpt lat="44.85162" lon="5.78347">
        <ele>860</ele>
        <time>2009-01-29T14:36:51Z</time>
      </trkpt>
      <trkpt lat="44.85113" lon="5.78616">
        <ele>872</ele>
        <time>2009-01-29T14:36:51Z</time>
      </trkpt>
      <trkpt lat="44.84998" lon="5.7883">
        <ele>895</ele>
        <time>2009-01-29T14:36:51Z</time>
      </trkpt>
      <trkpt lat="44.84954" lon="5.78929">
        <ele>907</ele>
        <time>2009-01-29T14:36:51Z</time>
      </trkpt>
      <trkpt lat="44.84948" lon="5.78986">
        <ele>917</ele>
        <time>2009-01-29T14:36:51Z</time>
      </trkpt>
      <trkpt lat="44.85036" lon="5.79067">
        <ele>916</ele>
        <time>2009-01-29T14:36:51Z</time>
      </trkpt>
      <trkpt lat="44.8494" lon="5.79232">
        <ele>894</ele>
        <time>2009-01-29T14:36:51Z</time>
      </trkpt>
      <trkpt lat="44.84879" lon="5.79317">
        <ele>886</ele>
        <time>2009-01-29T14:36:51Z</time>
      </trkpt>
      <trkpt lat="44.84823" lon="5.79395">
        <ele>878</ele>
        <time>2009-01-29T14:36:51Z</time>
      </trkpt>
      <trkpt lat="44.84791" lon="5.79533">
        <ele>867</ele>
        <time>2009-01-29T14:36:51Z</time>
      </trkpt>
      <trkpt lat="44.84823" lon="5.7968">
        <ele>863</ele>
        <time>2009-01-29T14:36:51Z</time>
      </trkpt>
      <trkpt lat="44.848" lon="5.79824">
        <ele>864</ele>
        <time>2009-01-29T14:36:51Z</time>
      </trkpt>
      <trkpt lat="44.84815" lon="5.79927">
        <ele>866</ele>
        <time>2009-01-29T14:36:51Z</time>
      </trkpt>
      <trkpt lat="44.84791" lon="5.79976">
        <ele>867</ele>
        <time>2009-01-29T14:36:51Z</time>
      </trkpt>
      <trkpt lat="44.84841" lon="5.80105">
        <ele>871</ele>
        <time>2009-01-29T14:36:51Z</time>
      </trkpt>
    </trkseg>
  </trk>
</gpx>